| time (UTC) | temp F | wind direction | speed MPH | gust MPH | rain 1hr in | rain 24hr in | rain mn in | humidity % | barometer mb |
| 20260831004004 | 94 | 289 | 0.0 | 12.0 | 0.00 | 0.00 | 0.00 | 35 | 936.9 |
| 20260831003003 | 94 | 282 | 1.0 | 13.0 | 0.00 | 0.00 | 0.00 | 35 | 936.9 |
| 20260831002003 | 94 | 283 | 2.0 | 12.0 | 0.00 | 0.00 | 0.00 | 35 | 936.9 |
| 20260831001003 | 94 | 263 | 4.0 | 12.0 | 0.00 | 0.00 | 0.00 | 35 | 936.9 |
| 20260831000004 | 94 | 287 | 5.0 | 14.0 | 0.00 | 0.00 | 0.00 | 35 | 936.9 |
| 20260830235004 | 94 | 302 | 6.0 | 15.0 | 0.00 | 0.00 | 0.00 | 35 | 936.9 |
| 20260830234004 | 94 | 304 | 4.0 | 15.0 | 0.00 | 0.00 | 0.00 | 35 | 936.9 |
| 20260830233004 | 94 | 292 | 7.0 | 15.0 | 0.00 | 0.00 | 0.00 | 35 | 936.9 |
| 20260830232004 | 94 | 288 | 4.0 | 12.0 | 0.00 | 0.00 | 0.00 | 35 | 936.9 |
| 20260830231003 | 94 | 315 | 4.0 | 15.0 | 0.00 | 0.00 | 0.00 | 35 | 936.9 |
| 20260830230004 | 94 | 286 | 3.0 | 10.0 | 0.00 | 0.00 | 0.00 | 35 | 936.9 |
| 20260830225004 | 94 | 300 | 6.0 | 13.0 | 0.00 | 0.00 | 0.00 | 35 | 936.9 |
| 20260830224004 | 94 | 304 | 2.0 | 13.0 | 0.00 | 0.00 | 0.00 | 35 | 936.9 |
| 20260830223003 | 94 | 279 | 6.0 | 16.0 | 0.00 | 0.00 | 0.00 | 35 | 936.9 |
| 20260830222003 | 94 | 290 | 2.0 | 16.0 | 0.00 | 0.00 | 0.00 | 35 | 936.9 |
| 20260830221004 | 94 | 291 | 6.0 | 16.0 | 0.00 | 0.00 | 0.00 | 35 | 936.9 |
| 20260830220003 | 94 | 295 | 6.0 | 15.0 | 0.00 | 0.00 | 0.00 | 35 | 936.9 |
| 20260830215004 | 94 | 276 | 2.0 | 12.0 | 0.00 | 0.00 | 0.00 | 35 | 936.9 |
| 20260830214004 | 94 | 297 | 3.0 | 13.0 | 0.00 | 0.00 | 0.00 | 35 | 936.9 |
| 20260830213004 | 94 | 293 | 5.0 | 16.0 | 0.00 | 0.00 | 0.00 | 35 | 936.9 |
| 20260830210938 | 94 | 313 | 5.0 | 16.0 | 0.00 | 0.00 | 0.00 | 35 | 936.9 |
| 20260830210004 | 94 | 276 | 3.0 | 13.0 | 0.00 | 0.00 | 0.00 | 35 | 936.9 |
| 20260830205004 | 94 | 304 | 5.0 | 14.0 | 0.00 | 0.00 | 0.00 | 35 | 936.9 |
| 20260830204003 | 94 | 296 | 5.0 | 13.0 | 0.00 | 0.00 | 0.00 | 35 | 936.9 |
| 20260830203004 | 94 | 301 | 4.0 | 13.0 | 0.00 | 0.00 | 0.00 | 35 | 936.9 |
| 20260830202003 | 94 | 302 | 6.0 | 14.0 | 0.00 | 0.00 | 0.00 | 35 | 936.9 |
| 20260830201004 | 94 | 284 | 7.0 | 12.0 | 0.00 | 0.00 | 0.00 | 35 | 936.9 |
| 20260830200003 | 94 | 311 | 3.0 | 12.0 | 0.00 | 0.00 | 0.00 | 35 | 936.9 |
| 20260830195004 | 94 | 281 | 3.0 | 13.0 | 0.00 | 0.00 | 0.00 | 35 | 936.9 |
| 20260830193003 | 94 | 277 | 2.0 | 10.0 | 0.00 | 0.00 | 0.00 | 35 | 936.9 |
| 20260830192004 | 94 | 277 | 1.0 | 9.0 | 0.00 | 0.00 | 0.00 | 35 | 936.9 |
| 20260830191004 | 94 | 276 | 2.0 | 10.0 | 0.00 | 0.00 | 0.00 | 35 | 936.9 |
| 20260830190003 | 94 | 240 | 2.0 | 12.0 | 0.00 | 0.00 | 0.00 | 35 | 936.9 |
| 20260830185004 | 94 | 238 | 1.0 | 9.0 | 0.00 | 0.00 | 0.00 | 35 | 936.9 |
| 20260830184004 | 94 | 189 | 0.0 | 7.0 | 0.00 | 0.00 | 0.00 | 35 | 936.9 |
| 20260830183003 | 94 | 261 | 2.0 | 7.0 | 0.00 | 0.00 | 0.00 | 35 | 936.9 |
| 20260830181003 | 94 | 289 | 2.0 | 9.0 | 0.00 | 0.00 | 0.00 | 35 | 936.9 |
| 20260830180003 | 94 | 298 | 1.0 | 9.0 | 0.00 | 0.00 | 0.00 | 35 | 936.9 |
| 20260830175004 | 94 | 290 | 0.0 | 0.0 | 0.00 | 0.00 | 0.00 | 35 | 936.9 |
| 20260830174004 | 94 | 7 | 0.0 | 0.0 | 0.00 | 0.00 | 0.00 | 35 | 936.9 |
| 20260830173004 | 94 | 81 | 0.0 | 0.0 | 0.00 | 0.00 | 0.00 | 35 | 936.9 |
| 20260830172003 | 94 | 254 | 0.0 | 0.0 | 0.00 | 0.00 | 0.00 | 35 | 936.9 |
| 20260830171004 | 94 | 235 | 0.0 | 0.0 | 0.00 | 0.00 | 0.00 | 35 | 936.9 |
| 20260830170003 | 94 | 233 | 0.0 | 1.0 | 0.00 | 0.00 | 0.00 | 35 | 936.9 |
| 20260830165004 | 94 | 273 | 0.0 | 0.0 | 0.00 | 0.00 | 0.00 | 35 | 936.9 |
| 20260830164004 | 94 | 271 | 0.0 | 0.0 | 0.00 | 0.00 | 0.00 | 35 | 936.9 |
| 20260830163003 | 94 | 279 | 0.0 | 0.0 | 0.00 | 0.00 | 0.00 | 35 | 936.9 |
| 20260830162004 | 94 | 269 | 0.0 | 0.0 | 0.00 | 0.00 | 0.00 | 35 | 936.9 |
| 20260830161004 | 94 | 270 | 0.0 | 0.0 | 0.00 | 0.00 | 0.00 | 35 | 936.9 |
| 20260830155004 | 94 | 270 | 0.0 | 0.0 | 0.00 | 0.00 | 0.00 | 35 | 936.9 |
| 20260830154003 | 94 | 270 | 0.0 | 0.0 | 0.00 | 0.00 | 0.00 | 35 | 936.9 |
| 20260830153003 | 94 | 270 | 0.0 | 0.0 | 0.00 | 0.00 | 0.00 | 35 | 936.9 |
| 20260830152004 | 94 | 270 | 0.0 | 0.0 | 0.00 | 0.00 | 0.00 | 35 | 936.9 |
| 20260830151004 | 94 | 270 | 0.0 | 0.0 | 0.00 | 0.00 | 0.00 | 35 | 936.9 |
| 20260830150003 | 94 | 7 | 0.0 | 0.0 | 0.00 | 0.00 | 0.00 | 35 | 936.9 |
| 20260830145004 | 94 | 7 | 0.0 | 0.0 | 0.00 | 0.00 | 0.00 | 35 | 936.9 |
| 20260830144003 | 94 | 7 | 0.0 | 0.0 | 0.00 | 0.00 | 0.00 | 35 | 936.9 |
| 20260830143004 | 94 | 7 | 0.0 | 0.0 | 0.00 | 0.00 | 0.00 | 35 | 936.9 |
| 20260830142004 | 94 | 7 | 0.0 | 0.0 | 0.00 | 0.00 | 0.00 | 35 | 936.9 |
| 20260830141004 | 94 | 7 | 0.0 | 0.0 | 0.00 | 0.00 | 0.00 | 35 | 936.9 |
| 20260830140004 | 94 | 7 | 0.0 | 0.0 | 0.00 | 0.00 | 0.00 | 35 | 936.9 |
| 20260830135004 | 94 | 269 | 0.0 | 0.0 | 0.00 | 0.00 | 0.00 | 35 | 936.9 |
| 20260830134004 | 94 | 269 | 0.0 | 0.0 | 0.00 | 0.00 | 0.00 | 35 | 936.9 |
| 20260830133004 | 94 | 269 | 0.0 | 0.0 | 0.00 | 0.00 | 0.00 | 35 | 936.9 |
| 20260830132004 | 94 | 269 | 0.0 | 0.0 | 0.00 | 0.00 | 0.00 | 35 | 936.9 |
| 20260830131004 | 94 | 269 | 0.0 | 0.0 | 0.00 | 0.00 | 0.00 | 35 | 936.9 |
| 20260830130004 | 94 | 269 | 0.0 | 0.0 | 0.00 | 0.00 | 0.00 | 35 | 936.9 |
| 20260830125004 | 94 | 269 | 0.0 | 0.0 | 0.00 | 0.00 | 0.00 | 35 | 936.9 |
| 20260830123004 | 94 | 268 | 0.0 | 0.0 | 0.00 | 0.00 | 0.00 | 35 | 936.9 |
| 20260830122003 | 94 | 268 | 0.0 | 0.0 | 0.00 | 0.00 | 0.00 | 35 | 936.9 |
| 20260830121004 | 94 | 268 | 0.0 | 0.0 | 0.00 | 0.00 | 0.00 | 35 | 936.9 |
| 20260830120004 | 94 | 268 | 0.0 | 0.0 | 0.00 | 0.00 | 0.00 | 35 | 936.9 |
| 20260830115003 | 94 | 268 | 0.0 | 0.0 | 0.00 | 0.00 | 0.00 | 35 | 936.9 |
| 20260830114004 | 94 | 268 | 0.0 | 0.0 | 0.00 | 0.00 | 0.00 | 35 | 936.9 |
| 20260830113004 | 94 | 268 | 0.0 | 0.0 | 0.00 | 0.00 | 0.00 | 35 | 936.9 |
| 20260830112004 | 94 | 290 | 0.0 | 0.0 | 0.00 | 0.00 | 0.00 | 35 | 936.9 |
| 20260830111004 | 94 | 290 | 0.0 | 0.0 | 0.00 | 0.00 | 0.00 | 35 | 936.9 |
| 20260830105004 | 94 | 290 | 0.0 | 0.0 | 0.00 | 0.00 | 0.00 | 35 | 936.9 |
| 20260830104004 | 94 | 290 | 0.0 | 0.0 | 0.00 | 0.00 | 0.00 | 35 | 936.9 |
| 20260830103004 | 94 | 290 | 0.0 | 0.0 | 0.00 | 0.00 | 0.00 | 35 | 936.9 |
| 20260830102004 | 94 | 290 | 0.0 | 0.0 | 0.00 | 0.00 | 0.00 | 35 | 936.9 |
| 20260830101003 | 94 | 290 | 0.0 | 0.0 | 0.00 | 0.00 | 0.00 | 35 | 936.9 |
| 20260830095004 | 94 | 284 | 0.0 | 0.0 | 0.00 | 0.00 | 0.00 | 35 | 936.9 |
| 20260830094004 | 94 | 292 | 0.0 | 0.0 | 0.00 | 0.00 | 0.00 | 35 | 936.9 |
| 20260830092004 | 94 | 277 | 0.0 | 0.0 | 0.00 | 0.00 | 0.00 | 35 | 936.9 |
| 20260830091003 | 94 | 275 | 0.0 | 1.0 | 0.00 | 0.00 | 0.00 | 35 | 936.9 |
| 20260830085003 | 94 | 285 | 0.0 | 0.0 | 0.00 | 0.00 | 0.00 | 35 | 936.9 |
| 20260830084004 | 94 | 281 | 0.0 | 0.0 | 0.00 | 0.00 | 0.00 | 35 | 936.9 |
| 20260830083004 | 94 | 279 | 0.0 | 0.0 | 0.00 | 0.00 | 0.00 | 35 | 936.9 |
| 20260830082004 | 94 | 278 | 0.0 | 0.0 | 0.00 | 0.00 | 0.00 | 35 | 936.9 |
| 20260830081004 | 94 | 278 | 0.0 | 0.0 | 0.00 | 0.00 | 0.00 | 35 | 936.9 |
| 20260830080004 | 94 | 278 | 0.0 | 0.0 | 0.00 | 0.00 | 0.00 | 35 | 936.9 |
| 20260830075004 | 94 | 278 | 0.0 | 0.0 | 0.00 | 0.00 | 0.00 | 35 | 936.9 |
| 20260830074003 | 94 | 278 | 0.0 | 0.0 | 0.00 | 0.00 | 0.00 | 35 | 936.9 |
| 20260830073004 | 94 | 278 | 0.0 | 0.0 | 0.00 | 0.00 | 0.00 | 35 | 936.9 |
| 20260830072004 | 94 | 278 | 0.0 | 0.0 | 0.00 | 0.00 | 0.00 | 35 | 936.9 |
| 20260830071003 | 94 | 278 | 0.0 | 0.0 | 0.00 | 0.00 | 0.00 | 35 | 936.9 |
| 20260830070004 | 94 | 278 | 0.0 | 0.0 | 0.00 | 0.00 | 0.00 | 35 | 936.9 |
| 20260830065004 | 94 | 284 | 0.0 | 0.0 | 0.00 | 0.00 | 0.00 | 35 | 936.9 |
| 20260830063004 | 94 | 283 | 0.0 | 0.0 | 0.00 | 0.00 | 0.00 | 35 | 936.9 |
| 20260830062004 | 94 | 283 | 0.0 | 0.0 | 0.00 | 0.00 | 0.00 | 35 | 936.9 |
| 20260830061003 | 94 | 283 | 0.0 | 0.0 | 0.00 | 0.00 | 0.00 | 35 | 936.9 |
| 20260830060004 | 94 | 283 | 0.0 | 0.0 | 0.00 | 0.00 | 0.00 | 35 | 936.9 |
| 20260830055004 | 94 | 283 | 0.0 | 0.0 | 0.00 | 0.00 | 0.00 | 35 | 936.9 |
| 20260830053004 | 94 | 265 | 0.0 | 0.0 | 0.00 | 0.00 | 0.00 | 35 | 936.9 |
| 20260830052003 | 94 | 257 | 0.0 | 0.0 | 0.00 | 0.00 | 0.00 | 35 | 936.9 |
| 20260830051004 | 94 | 263 | 0.0 | 3.0 | 0.00 | 0.00 | 0.00 | 35 | 936.9 |
| 20260830050003 | 94 | 302 | 0.0 | 5.0 | 0.00 | 0.00 | 0.00 | 35 | 936.9 |
| 20260830045004 | 94 | 279 | 0.0 | 3.0 | 0.00 | 0.00 | 0.00 | 35 | 936.9 |
| 20260830044004 | 94 | 294 | 0.0 | 3.0 | 0.00 | 0.00 | 0.00 | 35 | 936.9 |
| 20260830043004 | 94 | 281 | 0.0 | 5.0 | 0.00 | 0.00 | 0.00 | 35 | 936.9 |
| 20260830042004 | 94 | 290 | 0.0 | 2.0 | 0.00 | 0.00 | 0.00 | 35 | 936.9 |
| 20260830041003 | 94 | 284 | 0.0 | 3.0 | 0.00 | 0.00 | 0.00 | 35 | 936.9 |
| 20260830034003 | 94 | 252 | 0.0 | 3.0 | 0.00 | 0.00 | 0.00 | 35 | 936.9 |
| 20260830033004 | 94 | 286 | 0.0 | 3.0 | 0.00 | 0.00 | 0.00 | 35 | 936.9 |
| 20260830031004 | 94 | 297 | 0.0 | 9.0 | 0.00 | 0.00 | 0.00 | 35 | 936.9 |
| 20260830030004 | 94 | 303 | 0.0 | 6.0 | 0.00 | 0.00 | 0.00 | 35 | 936.9 |
| 20260830025003 | 94 | 296 | 1.0 | 9.0 | 0.00 | 0.00 | 0.00 | 35 | 936.9 |
| 20260830023004 | 94 | 281 | 0.0 | 12.0 | 0.00 | 0.00 | 0.00 | 35 | 936.9 |
| 20260830021004 | 94 | 300 | 2.0 | 9.0 | 0.00 | 0.00 | 0.00 | 35 | 936.9 |
| 20260830020003 | 94 | 307 | 1.0 | 10.0 | 0.00 | 0.00 | 0.00 | 35 | 936.9 |
| 20260830015004 | 94 | 305 | 4.0 | 12.0 | 0.00 | 0.00 | 0.00 | 35 | 936.9 |
| 20260830014004 | 94 | 299 | 2.0 | 10.0 | 0.00 | 0.00 | 0.00 | 35 | 936.9 |
| 20260830013003 | 94 | 300 | 0.0 | 7.0 | 0.00 | 0.00 | 0.00 | 35 | 936.9 |
| 20260830012004 | 94 | 294 | 2.0 | 10.0 | 0.00 | 0.00 | 0.00 | 35 | 936.9 |
| 20260830011004 | 94 | 298 | 3.0 | 8.0 | 0.00 | 0.00 | 0.00 | 35 | 936.9 |
| 20260830010004 | 94 | 292 | 0.0 | 5.0 | 0.00 | 0.00 | 0.00 | 35 | 936.9 |
| 20260830005004 | 94 | 258 | 2.0 | 9.0 | 0.00 | 0.00 | 0.00 | 35 | 936.9 |